When you browse on this site, cookies collect data to enhance your experience and personalize the content and advertising you see.
Visit our Privacy Policy to learn more. By continuing to use the site, you agree to this use of cookies and data.
  • In Hungary
  • List of Countries
  • For 7 days
  • Water Temperature
  • Weather Map
  • News
  • Weather Widgets
  • user-avatar
    Login

    Hourly Weather Storozhinets

    Today, 10 December, Tuesday

    Time Temperature Precipitation Wind Pressure Humidity
    00:00 +6°C° 0 mm 1 mps 721 mmHg 85%
    01:00 +6°C° 0 mm 1 mps 721 mmHg 84%
    02:00 +4°C° 0 mm 1 mps 721 mmHg 90%
    03:00 +3°C° 0 mm 2 mps 721 mmHg 91%
    04:00 +4°C° 0 mm 1 mps 721 mmHg 89%
    05:00 +3°C° 0 mm 0 mps 721 mmHg 89%
    06:00 +4°C° 0 mm 1 mps 721 mmHg 87%
    07:00 +3°C° 0 mm 0 mps 722 mmHg 87%
    08:00 +3°C° 0 mm 0 mps 722 mmHg 87%
    09:00 +3°C° 0 mm 0 mps 723 mmHg 87%
    10:00 +4°C° 0 mm 0 mps 723 mmHg 87%
    11:00 +6°C° 0 mm 1 mps 723 mmHg 88%
    12:00 +8°C° 0 mm 1 mps 724 mmHg 87%
    13:00 +7°C° 0 mm 2 mps 724 mmHg 88%
    14:00 +7°C° 0 mm 2 mps 725 mmHg 87%
    15:00 +7°C° 0 mm 2 mps 725 mmHg 90%
    16:00 +5°C° 0 mm 3 mps 725 mmHg 96%
    17:00 +4°C° 0 mm 3 mps 725 mmHg 100%
    18:00 +4°C° 0.2 mm 3 mps 725 mmHg 100%
    19:00 +4°C° 0.2 mm 4 mps 726 mmHg 100%
    20:00 +2°C° 0.3 mm 5 mps 727 mmHg 100%
    21:00 +1°C° 0.2 mm 5 mps 727 mmHg 100%
    22:00 +1°C° 0.1 mm 5 mps 727 mmHg 100%
    23:00 0°C° 0.1 mm 5 mps 727 mmHg 100%

    Tomorrow, 11 December, Wednesday

    Time Temperature Precipitation Wind Pressure Humidity
    00:00 0°C° 0.2 mm 5 mps 728 mmHg 100%
    01:00 0°C° 0.2 mm 5 mps 728 mmHg 100%
    02:00 0°C° 0.2 mm 5 mps 728 mmHg 100%
    03:00 -1°C° 0.2 mm 4 mps 728 mmHg 100%
    04:00 -1°C° 0.2 mm 4 mps 728 mmHg 100%
    05:00 -1°C° 0.3 mm 4 mps 728 mmHg 100%
    06:00 -1°C° 0.2 mm 4 mps 728 mmHg 100%
    07:00 0°C° 0.1 mm 3 mps 728 mmHg 100%
    08:00 0°C° 0.1 mm 3 mps 728 mmHg 100%
    09:00 0°C° 0.4 mm 3 mps 729 mmHg 100%
    10:00 +1°C° 0.4 mm 2 mps 728 mmHg 100%
    11:00 +1°C° 0.2 mm 2 mps 728 mmHg 100%
    12:00 +2°C° 0.3 mm 1 mps 728 mmHg 100%
    13:00 +2°C° 0.6 mm 1 mps 727 mmHg 100%
    14:00 +1°C° 0.3 mm 0 mps 727 mmHg 100%
    15:00 +1°C° 0.1 mm 0 mps 727 mmHg 100%
    16:00 +1°C° 0.1 mm 0 mps 726 mmHg 100%
    17:00 +2°C° 0 mm 1 mps 726 mmHg 100%
    18:00 +1°C° 0.1 mm 2 mps 726 mmHg 100%
    19:00 +1°C° 0 mm 2 mps 726 mmHg 100%
    20:00 +1°C° 0 mm 2 mps 726 mmHg 100%
    21:00 0°C° 0 mm 3 mps 725 mmHg 100%
    22:00 -1°C° 0 mm 4 mps 725 mmHg 100%
    23:00 -1°C° 0 mm 4 mps 725 mmHg 100%

    Day after tomorrow, 12 December, Thursday

    Time Temperature Precipitation Wind Pressure Humidity
    00:00 -1°C° 0 mm 4 mps 724 mmHg 100%
    01:00 -1°C° 0 mm 4 mps 724 mmHg 100%
    02:00 -2°C° 0 mm 4 mps 724 mmHg 100%
    03:00 -2°C° 0 mm 4 mps 723 mmHg 100%
    04:00 -1°C° 0 mm 5 mps 723 mmHg 100%
    05:00 -1°C° 0 mm 5 mps 722 mmHg 100%
    06:00 -2°C° 0 mm 5 mps 722 mmHg 100%
    07:00 -2°C° 0 mm 5 mps 723 mmHg 100%
    08:00 -3°C° 0 mm 6 mps 723 mmHg 100%
    09:00 -2°C° 0 mm 6 mps 723 mmHg 100%
    10:00 -1°C° 0 mm 6 mps 722 mmHg 100%
    11:00 +1°C° 0 mm 6 mps 722 mmHg 99%
    12:00 +1°C° 0 mm 6 mps 722 mmHg 99%
    13:00 +2°C° 0 mm 6 mps 722 mmHg 99%
    14:00 +2°C° 0 mm 6 mps 722 mmHg 99%
    15:00 +1°C° 0 mm 5 mps 721 mmHg 100%
    16:00 0°C° 0 mm 5 mps 721 mmHg 100%
    17:00 0°C° 0 mm 5 mps 721 mmHg 100%
    18:00 0°C° 0 mm 5 mps 721 mmHg 100%
    19:00 0°C° 0 mm 5 mps 721 mmHg 100%
    20:00 -1°C° 0 mm 5 mps 721 mmHg 100%
    21:00 -2°C° 0 mm 6 mps 720 mmHg 100%
    22:00 -2°C° 0 mm 6 mps 720 mmHg 100%
    23:00 -2°C° 0 mm 6 mps 720 mmHg 100%

    13 December, Friday

    Time Temperature Precipitation Wind Pressure Humidity
    00:00 -2°C° 0 mm 6 mps 719 mmHg 100%
    01:00 -1°C° 0 mm 5 mps 719 mmHg 100%
    02:00 -3°C° 0 mm 6 mps 719 mmHg 100%
    03:00 -3°C° 0 mm 6 mps 718 mmHg 100%
    04:00 -3°C° 0 mm 6 mps 718 mmHg 100%
    05:00 -3°C° 0 mm 6 mps 717 mmHg 100%
    06:00 -3°C° 0 mm 6 mps 717 mmHg 100%
    07:00 -3°C° 0 mm 6 mps 717 mmHg 100%
    08:00 -3°C° 0 mm 6 mps 717 mmHg 100%
    09:00 -3°C° 0 mm 6 mps 716 mmHg 100%
    10:00 -2°C° 0 mm 6 mps 716 mmHg 100%
    11:00 -1°C° 0 mm 6 mps 716 mmHg 99%
    12:00 0°C° 0 mm 7 mps 716 mmHg 99%
    13:00 0°C° 0 mm 7 mps 715 mmHg 99%
    14:00 +2°C° 0 mm 7 mps 715 mmHg 99%
    15:00 +2°C° 0 mm 7 mps 715 mmHg 99%
    16:00 +2°C° 0 mm 6 mps 715 mmHg 100%
    17:00 +2°C° 0 mm 6 mps 715 mmHg 100%
    18:00 +1°C° 0 mm 6 mps 715 mmHg 100%
    19:00 +1°C° 0 mm 6 mps 715 mmHg 100%
    20:00 +1°C° 0 mm 6 mps 715 mmHg 100%
    21:00 +1°C° 0 mm 5 mps 715 mmHg 100%
    22:00 +1°C° 0 mm 5 mps 715 mmHg 100%
    23:00 +1°C° 0 mm 6 mps 715 mmHg 100%

    14 December, Saturday

    Time Temperature Precipitation Wind Pressure Humidity
    00:00 -1°C° 0 mm 6 mps 715 mmHg 100%
    01:00 0°C° 0 mm 5 mps 715 mmHg 100%
    02:00 0°C° 0 mm 5 mps 715 mmHg 100%

    15 December, Sunday

    Time Temperature Precipitation Wind Pressure Humidity
    Show more